Terminal Aerodrome Forecast
Issued by NWS

Home | Current Version | Previous Version | Text Only | Print | Product List | Glossary Off
Versions: 1 2 3 4 5 6 7 8 9 10 11 12 13 14 15 16 17 18 19 20 21 22 23 24 25 26 27

000
FTUS43 KLOT 151230 AAA
TAFORD
TAF AMD
KORD 151230Z 1513/1618 27013G20KT P6SM -SHSN OVC025
     FM151500 27014G22KT P6SM BKN025 OVC040
     FM152300 23007KT P6SM SCT025 OVC040=

USA.gov is the U.S. government's official web portal to all federal, state and local government web resources and services.